QPF
0.00 0.00 0.00 0.00 0.00 0.00 0.00 0.00 0.00 0.00 0.00 0.00 0.00 0.00 0.00 0.00 0.00 0.00 0.00 0.00 0.00 0.00 0.00 0.00 0.00 0.00 0.00 0.00 0.00 0.00 0.01 0.02 0.03 0.01 0.00 0.00 0.00 0.00 0.00 0.00 0.00 0.00 0.00
0.00 0.00 0.00 0.00 0.00 0.00 0.00 0.00 0.00 0.00 0.00 0.00 0.00 0.00 0.00 0.00 0.00 0.00 0.00 0.00 0.00 0.00 0.00 0.00 0.00 0.00 0.00 0.00 0.00 0.01 0.01 0.01 0.03 0.02 0.00 0.00 0.00 0.00 0.00 0.00 0.00 0.00 0.00
0.00 0.00 0.00 0.00 0.00 0.00 0.00 0.00 0.00 0.00 0.00 0.00 0.00 0.00 0.00 0.00 0.00 0.00 0.00 0.01 0.00 0.00 0.00 0.00 0.00 0.00 0.00 0.00 0.01 0.01 0.01 0.01 0.02 0.03 0.02 0.00 0.00 0.00 0.00 0.00 0.00 0.00 0.00
0.00 0.00 0.00 0.00 0.00 0.00 0.00 0.00 0.00 0.00 0.00 0.00 0.00 0.00 0.00 0.00 0.00 0.01 0.01 0.01 0.01 0.01 0.00 0.00 0.00 0.01 0.01 0.01 0.01 0.01 0.01 0.03 0.04 0.04 0.03 0.01 0.01 0.00 0.01 0.01 0.00 0.00 0.00
0.00 0.00 0.00 0.00 0.00 0.00 0.00 0.00 0.00 0.00 0.00 0.00 0.00 0.00 0.00 0.01 0.01 0.01 0.01 0.01 0.01 0.01 0.01 0.00 0.01 0.01 0.01 0.02 0.03 0.04 0.06 0.09 0.07 0.07 0.05 0.03 0.02 0.02 0.01 0.01 0.01 0.00 0.00
0.00 0.00 0.00 0.00 0.00 0.00 0.00 0.00 0.00 0.00 0.00 0.00 0.00 0.00 0.01 0.01 0.01 0.01 0.01 0.01 0.01 0.01 0.01 0.00 0.00 0.00 0.01 0.01 0.03 0.04 0.06 0.09 0.10 0.09 0.07 0.05 0.02 0.01 0.01 0.01 0.01 0.01 0.01
0.00 0.00 0.00 0.00 0.00 0.00 0.00 0.00 0.00 0.00 0.00 0.00 0.00 0.00 0.01 0.01 0.01 0.02 0.01 0.01 0.00 0.00 0.01 0.00 0.00 0.00 0.00 0.01 0.01 0.01 0.02 0.02 0.04 0.06 0.06 0.03 0.02 0.01 0.01 0.02 0.01 0.01 0.01
0.00 0.00 0.00 0.00 0.00 0.00 0.00 0.00 0.00 0.00 0.00 0.00 0.00 0.01 0.01 0.01 0.02 0.01 0.01 0.01 0.00 0.00 0.00 0.01 0.01 0.00 0.00 0.01 0.01 0.02 0.02 0.01 0.01 0.01 0.02 0.01 0.01 0.02 0.03 0.04 0.03 0.03 0.01
0.00 0.00 0.00 0.00 0.00 0.00 0.00 0.00 0.00 0.00 0.00 0.00 0.01 0.01 0.01 0.01 0.02 0.01 0.01 0.01 0.01 0.01 0.00 0.01 0.01 0.01 0.01 0.02 0.04 0.04 0.03 0.02 0.01 0.02 0.03 0.03 0.04 0.04 0.06 0.08 0.06 0.05 0.03
0.00 0.00 0.00 0.00 0.00 0.00 0.00 0.00 0.00 0.00 0.00 0.00 0.01 0.01 0.01 0.01 0.01 0.01 0.01 0.01 0.01 0.01 0.01 0.00 0.00 0.01 0.01 0.02 0.04 0.05 0.04 0.02 0.02 0.02 0.02 0.01 0.01 0.01 0.02 0.04 0.04 0.03 0.02
0.00 0.00 0.00 0.00 0.00 0.00 0.00 0.00 0.00 0.00 0.00 0.00 0.01 0.01 0.01 0.01 0.01 0.01 0.01 0.01 0.01 0.01 0.01 0.00 0.00 0.01 0.01 0.02 0.04 0.05 0.04 0.04 0.04 0.03 0.02 0.01 0.01 0.01 0.01 0.01 0.02 0.02 0.02
0.00 0.00 0.00 0.00 0.00 0.00 0.00 0.00 0.00 0.00 0.00 0.01 0.01 0.01 0.01 0.01 0.01 0.01 0.01 0.01 0.01 0.01 0.01 0.00 0.00 0.01 0.02 0.02 0.03 0.03 0.03 0.04 0.03 0.02 0.01 0.01 0.01 0.01 0.00 0.01 0.01 0.02 0.02
0.00 0.00 0.00 0.00 0.00 0.00 0.00 0.00 0.00 0.00 0.00 0.01 0.01 0.01 0.01 0.01 0.01 0.01 0.01 0.01 0.01 0.01 0.00 0.00 0.01 0.01 0.01 0.01 0.01 0.01 0.01 0.01 0.01 0.01 0.01 0.00 0.00 0.01 0.01 0.01 0.01 0.02 0.02
0.00 0.00 0.00 0.00 0.00 0.00 0.00 0.00 0.00 0.00 0.01 0.01 0.01 0.01 0.01 0.01 0.01 0.01 0.01 0.01 0.01 0.01 0.01 0.00 0.01 0.01 0.00 0.00 0.00 0.00 0.00 0.00 0.01 0.01 0.01 0.00 0.00 0.01 0.01 0.01 0.01 0.02 0.03
0.00 0.00 0.00 0.00 0.00 0.00 0.00 0.00 0.00 0.01 0.01 0.01 0.01 0.01 0.01 0.01 0.01 0.01 0.01 0.01 0.01 0.01 0.01 0.01 0.01 0.00 0.00 0.00 0.00 0.00 0.00 0.00 0.00 0.01 0.01 0.01 0.01 0.01 0.01 0.01 0.02 0.02 0.03
0.00 0.00 0.00 0.00 0.00 0.00 0.00 0.00 0.00 0.01 0.01 0.01 0.01 0.01 0.01 0.01 0.01 0.01 0.01 0.01 0.01 0.01 0.01 0.01 0.00 0.00 0.00 0.00 0.00 0.00 0.00 0.00 0.00 0.01 0.01 0.01 0.01 0.01 0.01 0.01 0.01 0.02 0.02
0.00 0.00 0.00 0.00 0.00 0.00 0.00 0.01 0.01 0.01 0.01 0.01 0.01 0.01 0.01 0.01 0.01 0.01 0.01 0.01 0.01 0.01 0.01 0.00 0.00 0.00 0.00 0.00 0.00 0.00 0.00 0.00 0.01 0.01 0.01 0.01 0.01 0.01 0.01 0.02 0.02 0.02 0.02
0.00 0.00 0.00 0.00 0.00 0.00 0.01 0.01 0.01 0.01 0.01 0.01 0.01 0.01 0.02 0.02 0.02 0.02 0.02 0.01 0.01 0.01 0.01 0.00 0.00 0.00 0.00 0.00 0.00 0.00 0.00 0.00 0.00 0.01 0.01 0.01 0.01 0.02 0.02 0.02 0.02 0.03 0.03
0.00 0.00 0.00 0.00 0.00 0.01 0.01 0.01 0.01 0.01 0.01 0.01 0.02 0.02 0.03 0.03 0.03 0.03 0.02 0.02 0.01 0.01 0.01 0.00 0.00 0.00 0.00 0.00 0.00 0.00 0.00 0.00 0.00 0.01 0.01 0.01 0.01 0.02 0.02 0.02 0.02 0.03 0.04
0.00 0.00 0.01 0.01 0.01 0.01 0.01 0.01 0.01 0.02 0.02 0.02 0.02 0.02 0.03 0.04 0.05 0.03 0.03 0.02 0.01 0.01 0.00 0.00 0.00 0.00 0.00 0.00 0.00 0.00 0.00 0.00 0.00 0.01 0.01 0.01 0.01 0.02 0.02 0.02 0.02 0.03 0.04
0.01 0.01 0.01 0.01 0.01 0.01 0.01 0.02 0.02 0.02 0.02 0.02 0.02 0.02 0.03 0.03 0.03 0.02 0.02 0.02 0.01 0.01 0.01 0.01 0.00 0.00 0.00 0.00 0.00 0.00 0.00 0.00 0.01 0.01 0.01 0.01 0.02 0.02 0.02 0.02 0.02 0.03 0.04
0.01 0.01 0.01 0.01 0.01 0.01 0.02 0.02 0.03 0.03 0.03 0.03 0.03 0.03 0.03 0.03 0.02 0.02 0.02 0.01 0.01 0.01 0.01 0.01 0.01 0.00 0.00 0.00 0.00 0.01 0.01 0.00 0.01 0.01 0.01 0.01 0.02 0.02 0.02 0.02 0.02 0.03 0.04
0.01 0.01 0.01 0.01 0.02 0.02 0.03 0.03 0.03 0.03 0.03 0.03 0.03 0.03 0.03 0.03 0.02 0.02 0.02 0.01 0.01 0.01 0.01 0.01 0.00 0.00 0.00 0.00 0.01 0.01 0.01 0.01 0.01 0.01 0.02 0.02 0.03 0.03 0.03 0.03 0.03 0.03 0.03
0.02 0.02 0.02 0.02 0.03 0.03 0.04 0.04 0.03 0.03 0.03 0.03 0.03 0.02 0.02 0.02 0.02 0.02 0.01 0.01 0.01 0.01 0.01 0.00 0.00 0.00 0.00 0.00 0.00 0.01 0.01 0.02 0.02 0.03 0.03 0.03 0.03 0.03 0.04 0.04 0.04 0.04 0.04
0.02 0.02 0.03 0.03 0.03 0.04 0.04 0.04 0.03 0.03 0.03 0.03 0.03 0.02 0.02 0.02 0.02 0.02 0.01 0.01 0.01 0.01 0.00 0.00 0.00 0.00 0.00 0.00 0.01 0.01 0.01 0.02 0.03 0.03 0.03 0.03 0.04 0.04 0.04 0.04 0.04 0.04 0.04
0.02 0.02 0.03 0.03 0.03 0.04 0.04 0.04 0.03 0.03 0.03 0.03 0.02 0.02 0.02 0.02 0.02 0.01 0.01 0.01 0.01 0.00 0.00 0.00 0.00 0.00 0.00 0.00 0.01 0.01 0.02 0.02 0.03 0.02 0.03 0.03 0.04 0.04 0.05 0.05 0.05 0.05 0.05
MSLP
1008.40 1008.64 1008.82 1008.92 1008.94 1008.92 1008.89 1008.91 1009.01 1009.24 1009.58 1010.05 1010.61 1011.23 1011.88 1012.53 1013.17 1013.80 1014.43 1015.05 1015.67 1016.28 1016.87 1017.41 1017.88 1018.24 1018.46 1018.53 1018.45 1018.22 1017.87 1017.42 1016.89 1016.32 1015.73 1015.13 1014.56 1014.02 1013.52 1013.06 1012.65 1012.28 1011.93
1007.38 1007.56 1007.70 1007.78 1007.79 1007.77 1007.75 1007.77 1007.87 1008.08 1008.40 1008.84 1009.36 1009.95 1010.57 1011.20 1011.83 1012.45 1013.07 1013.69 1014.32 1014.94 1015.54 1016.09 1016.58 1016.96 1017.22 1017.33 1017.30 1017.12 1016.82 1016.42 1015.94 1015.40 1014.82 1014.23 1013.64 1013.07 1012.53 1012.02 1011.56 1011.14 1010.76
1006.49 1006.59 1006.67 1006.70 1006.69 1006.65 1006.63 1006.64 1006.74 1006.93 1007.23 1007.63 1008.12 1008.67 1009.25 1009.86 1010.47 1011.08 1011.70 1012.32 1012.95 1013.58 1014.19 1014.76 1015.25 1015.65 1015.93 1016.07 1016.08 1015.95 1015.70 1015.35 1014.92 1014.43 1013.90 1013.33 1012.75 1012.17 1011.61 1011.07 1010.56 1010.09 1009.65
1005.73 1005.73 1005.72 1005.68 1005.62 1005.55 1005.50 1005.50 1005.57 1005.74 1006.02 1006.39 1006.84 1007.35 1007.90 1008.48 1009.07 1009.68 1010.30 1010.93 1011.57 1012.21 1012.83 1013.41 1013.91 1014.32 1014.61 1014.77 1014.80 1014.70 1014.50 1014.21 1013.84 1013.40 1012.92 1012.41 1011.87 1011.31 1010.75 1010.19 1009.66 1009.15 1008.67
1005.08 1004.97 1004.85 1004.72 1004.58 1004.44 1004.35 1004.31 1004.36 1004.50 1004.75 1005.08 1005.50 1005.98 1006.50 1007.05 1007.64 1008.24 1008.87 1009.51 1010.17 1010.82 1011.45 1012.04 1012.55 1012.95 1013.25 1013.42 1013.46 1013.39 1013.23 1012.98 1012.67 1012.30 1011.89 1011.44 1010.96 1010.46 1009.94 1009.41 1008.88 1008.36 1007.86
1004.53 1004.28 1004.04 1003.79 1003.55 1003.34 1003.18 1003.09 1003.10 1003.21 1003.42 1003.73 1004.12 1004.57 1005.07 1005.60 1006.18 1006.78 1007.41 1008.07 1008.74 1009.41 1010.05 1010.63 1011.14 1011.55 1011.84 1012.01 1012.07 1012.01 1011.88 1011.67 1011.42 1011.12 1010.79 1010.43 1010.04 1009.62 1009.17 1008.70 1008.22 1007.73 1007.24
1004.02 1003.65 1003.27 1002.90 1002.55 1002.24 1002.01 1001.87 1001.84 1001.92 1002.10 1002.38 1002.74 1003.17 1003.65 1004.17 1004.73 1005.32 1005.96 1006.61 1007.29 1007.96 1008.60 1009.19 1009.70 1010.10 1010.39 1010.56 1010.61 1010.58 1010.47 1010.31 1010.11 1009.88 1009.64 1009.38 1009.10 1008.79 1008.45 1008.08 1007.69 1007.27 1006.83
1003.52 1003.03 1002.53 1002.03 1001.58 1001.19 1000.88 1000.69 1000.62 1000.67 1000.83 1001.09 1001.43 1001.83 1002.29 1002.79 1003.33 1003.91 1004.52 1005.17 1005.83 1006.49 1007.13 1007.71 1008.21 1008.61 1008.90 1009.07 1009.14 1009.12 1009.04 1008.92 1008.78 1008.63 1008.48 1008.32 1008.16 1007.98 1007.77 1007.53 1007.24 1006.92 1006.56
1003.02 1002.42 1001.81 1001.22 1000.67 1000.21 999.85 999.61 999.51 999.53 999.68 999.92 1000.24 1000.62 1001.04 1001.51 1002.02 1002.56 1003.15 1003.76 1004.40 1005.04 1005.65 1006.22 1006.72 1007.12 1007.41 1007.60 1007.69 1007.70 1007.66 1007.59 1007.51 1007.43 1007.36 1007.31 1007.26 1007.20 1007.12 1007.00 1006.85 1006.64 1006.38
1002.51 1001.84 1001.15 1000.48 999.87 999.34 998.94 998.68 998.55 998.56 998.68 998.90 999.20 999.55 999.94 1000.37 1000.83 1001.32 1001.85 1002.42 1003.02 1003.62 1004.21 1004.77 1005.26 1005.67 1005.98 1006.19 1006.32 1006.37 1006.38 1006.36 1006.34 1006.32 1006.33 1006.36 1006.40 1006.45 1006.48 1006.48 1006.44 1006.34 1006.17
1002.02 1001.29 1000.55 999.83 999.18 998.62 998.19 997.90 997.76 997.75 997.86 998.06 998.32 998.64 998.98 999.35 999.76 1000.19 1000.67 1001.18 1001.72 1002.29 1002.85 1003.40 1003.89 1004.31 1004.66 1004.91 1005.08 1005.19 1005.25 1005.28 1005.31 1005.35 1005.42 1005.50 1005.61 1005.72 1005.83 1005.91 1005.96 1005.94 1005.86
1001.56 1000.81 1000.04 999.30 998.62 998.04 997.60 997.29 997.13 997.11 997.19 997.35 997.58 997.85 998.14 998.45 998.80 999.17 999.58 1000.03 1000.53 1001.06 1001.60 1002.14 1002.64 1003.10 1003.48 1003.78 1004.01 1004.18 1004.29 1004.37 1004.45 1004.52 1004.62 1004.73 1004.87 1005.01 1005.15 1005.27 1005.36 1005.40 1005.37
1001.15 1000.39 999.61 998.86 998.17 997.59 997.13 996.81 996.63 996.57 996.62 996.75 996.92 997.14 997.37 997.63 997.91 998.22 998.58 998.99 999.44 999.95 1000.48 1001.02 1001.54 1002.03 1002.46 1002.82 1003.11 1003.33 1003.49 1003.62 1003.72 1003.82 1003.92 1004.03 1004.15 1004.28 1004.42 1004.54 1004.63 1004.68 1004.68
1000.77 1000.00 999.23 998.48 997.79 997.20 996.74 996.40 996.19 996.10 996.10 996.17 996.29 996.45 996.62 996.82 997.05 997.32 997.64 998.01 998.45 998.94 999.47 1000.02 1000.57 1001.10 1001.58 1001.99 1002.33 1002.60 1002.81 1002.96 1003.08 1003.18 1003.27 1003.35 1003.44 1003.54 1003.64 1003.72 1003.79 1003.83 1003.82
1000.37 999.60 998.83 998.09 997.41 996.82 996.34 995.98 995.74 995.60 995.54 995.56 995.62 995.72 995.85 996.00 996.19 996.43 996.72 997.09 997.52 998.01 998.56 999.13 999.71 1000.27 1000.79 1001.24 1001.63 1001.94 1002.17 1002.35 1002.47 1002.56 1002.62 1002.68 1002.72 1002.77 1002.81 1002.85 1002.88 1002.88 1002.85
999.87 999.10 998.34 997.61 996.94 996.35 995.86 995.48 995.20 995.02 994.91 994.87 994.88 994.93 995.01 995.14 995.30 995.53 995.82 996.19 996.63 997.14 997.71 998.30 998.91 999.50 1000.05 1000.54 1000.95 1001.28 1001.54 1001.72 1001.84 1001.92 1001.96 1001.98 1001.99 1001.99 1001.99 1001.98 1001.97 1001.93 1001.88
999.21 998.44 997.69 996.98 996.32 995.74 995.25 994.85 994.54 994.32 994.17 994.08 994.05 994.06 994.12 994.23 994.40 994.63 994.93 995.32 995.78 996.31 996.90 997.52 998.14 998.75 999.32 999.83 1000.25 1000.60 1000.87 1001.05 1001.17 1001.24 1001.27 1001.27 1001.25 1001.23 1001.20 1001.16 1001.12 1001.06 1000.98
998.34 997.58 996.84 996.15 995.52 994.96 994.47 994.08 993.76 993.52 993.34 993.23 993.17 993.16 993.21 993.32 993.50 993.75 994.07 994.48 994.97 995.52 996.13 996.76 997.40 998.01 998.59 999.10 999.53 999.88 1000.14 1000.33 1000.46 1000.53 1000.56 1000.56 1000.54 1000.51 1000.48 1000.43 1000.37 1000.30 1000.21
997.26 996.51 995.80 995.14 994.55 994.02 993.57 993.19 992.88 992.64 992.47 992.35 992.29 992.29 992.34 992.47 992.66 992.94 993.29 993.72 994.23 994.80 995.41 996.05 996.68 997.29 997.86 998.36 998.79 999.13 999.40 999.60 999.73 999.81 999.85 999.87 999.87 999.86 999.84 999.80 999.76 999.68 999.58
996.05 995.31 994.64 994.02 993.47 993.00 992.59 992.25 991.98 991.77 991.62 991.52 991.48 991.50 991.58 991.73 991.95 992.25 992.63 993.08 993.60 994.17 994.78 995.40 996.02 996.62 997.16 997.65 998.07 998.41 998.68 998.88 999.03 999.12 999.19 999.24 999.26 999.28 999.28 999.27 999.23 999.16 999.06
994.80 994.10 993.46 992.90 992.41 991.99 991.65 991.36 991.14 990.98 990.87 990.82 990.82 990.88 991.00 991.18 991.43 991.75 992.14 992.60 993.11 993.67 994.26 994.86 995.45 996.02 996.54 997.01 997.41 997.74 998.01 998.22 998.38 998.50 998.59 998.66 998.71 998.75 998.77 998.78 998.75 998.69 998.57
993.68 993.00 992.40 991.89 991.47 991.11 990.83 990.61 990.45 990.35 990.30 990.30 990.36 990.46 990.62 990.84 991.12 991.46 991.85 992.30 992.80 993.33 993.89 994.45 995.00 995.53 996.02 996.46 996.84 997.16 997.43 997.64 997.81 997.94 998.05 998.13 998.20 998.25 998.28 998.28 998.25 998.18 998.04
992.80 992.16 991.61 991.15 990.77 990.47 990.25 990.09 989.99 989.95 989.96 990.02 990.13 990.29 990.50 990.75 991.05 991.39 991.78 992.21 992.67 993.16 993.67 994.18 994.68 995.16 995.61 996.02 996.37 996.68 996.94 997.15 997.32 997.45 997.55 997.63 997.69 997.73 997.75 997.73 997.68 997.57 997.40
992.28 991.67 991.16 990.73 990.40 990.14 989.96 989.84 989.79 989.80 989.87 989.99 990.15 990.36 990.60 990.88 991.19 991.53 991.90 992.29 992.71 993.14 993.59 994.04 994.48 994.90 995.30 995.67 996.00 996.28 996.52 996.72 996.87 996.99 997.08 997.14 997.17 997.18 997.15 997.09 996.99 996.83 996.61
992.14 991.57 991.09 990.69 990.37 990.13 989.97 989.88 989.86 989.91 990.01 990.17 990.38 990.62 990.89 991.19 991.50 991.83 992.17 992.52 992.88 993.25 993.62 993.99 994.36 994.72 995.06 995.38 995.68 995.93 996.14 996.32 996.45 996.55 996.60 996.62 996.61 996.57 996.49 996.37 996.20 995.98 995.69
992.36 991.83 991.36 990.97 990.66 990.42 990.27 990.18 990.17 990.24 990.36 990.55 990.78 991.04 991.33 991.64 991.94 992.25 992.55 992.85 993.15 993.44 993.73 994.02 994.31 994.60 994.88 995.14 995.39 995.60 995.79 995.93 996.03 996.09 996.11 996.08 996.02 995.91 995.77 995.58 995.34 995.05 994.69
Thickness
5604 5597 5591 5584 5575 5566 5559 5553 5543 5532 5521 5509 5498 5485 5474 5461 5448 5436 5425 5413 5401 5389 5377 5366 5356 5344 5334 5324 5313 5303 5293 5283 5280 5283 5273 5265 5255 5247 5241 5233 5227 5222 5219
5597 5590 5584 5577 5568 5561 5556 5548 5536 5526 5515 5503 5491 5479 5468 5456 5443 5432 5420 5408 5397 5385 5373 5361 5350 5338 5327 5316 5306 5296 5287 5277 5268 5268 5265 5258 5251 5243 5236 5230 5223 5218 5214
5587 5581 5575 5569 5562 5556 5549 5539 5528 5518 5507 5495 5483 5473 5463 5451 5439 5427 5415 5403 5391 5379 5367 5356 5345 5332 5322 5311 5300 5290 5281 5271 5262 5257 5257 5252 5246 5239 5232 5226 5220 5215 5211
5576 5570 5566 5561 5554 5547 5539 5529 5519 5509 5499 5489 5477 5466 5455 5444 5432 5419 5407 5396 5385 5373 5361 5350 5339 5327 5317 5305 5295 5285 5275 5266 5258 5252 5249 5246 5241 5235 5226 5221 5217 5212 5208
5565 5560 5556 5550 5543 5536 5528 5520 5510 5501 5491 5480 5469 5459 5449 5438 5426 5413 5401 5390 5378 5367 5356 5345 5334 5323 5312 5300 5290 5281 5270 5261 5254 5249 5245 5240 5236 5229 5222 5215 5210 5207 5205
5554 5550 5545 5538 5532 5525 5518 5510 5502 5493 5483 5472 5462 5452 5443 5433 5422 5409 5394 5382 5372 5361 5351 5340 5329 5318 5308 5298 5289 5279 5269 5258 5251 5244 5240 5234 5230 5223 5216 5209 5203 5201 5202
5541 5537 5532 5527 5521 5515 5509 5501 5494 5485 5476 5467 5457 5447 5438 5429 5416 5404 5391 5377 5366 5357 5346 5335 5325 5315 5304 5294 5285 5276 5266 5256 5247 5239 5234 5228 5222 5217 5209 5205 5200 5196 5196
5529 5526 5522 5517 5512 5507 5500 5494 5487 5478 5469 5460 5451 5442 5432 5423 5410 5398 5386 5373 5363 5353 5342 5331 5321 5311 5300 5289 5279 5270 5262 5253 5245 5236 5229 5224 5217 5211 5204 5199 5196 5194 5193
5521 5518 5514 5509 5504 5499 5493 5487 5479 5471 5463 5454 5444 5435 5425 5416 5404 5392 5379 5369 5359 5349 5338 5326 5315 5305 5296 5285 5275 5267 5260 5253 5244 5235 5228 5221 5215 5209 5202 5195 5192 5189 5191
5513 5509 5504 5500 5496 5491 5486 5479 5471 5462 5454 5445 5436 5427 5418 5409 5398 5385 5374 5364 5355 5345 5334 5322 5311 5301 5291 5280 5270 5262 5256 5250 5241 5233 5225 5219 5212 5206 5199 5192 5188 5184 5184
5501 5497 5493 5490 5486 5481 5476 5469 5461 5452 5443 5435 5426 5418 5409 5401 5390 5379 5369 5358 5350 5339 5329 5319 5308 5297 5286 5276 5267 5258 5251 5243 5235 5228 5221 5215 5208 5202 5196 5190 5184 5179 5178
5489 5486 5483 5479 5475 5469 5463 5457 5449 5441 5432 5424 5416 5408 5400 5391 5381 5372 5363 5354 5343 5333 5324 5314 5303 5292 5282 5272 5263 5254 5245 5237 5229 5222 5216 5210 5205 5199 5194 5187 5182 5177 5175
5478 5475 5472 5468 5463 5457 5451 5445 5438 5430 5422 5414 5406 5399 5391 5381 5373 5364 5355 5346 5337 5327 5318 5307 5297 5286 5276 5266 5257 5248 5238 5230 5223 5216 5211 5206 5200 5194 5189 5184 5180 5177 5174
5466 5464 5461 5457 5453 5447 5440 5434 5427 5420 5412 5404 5396 5389 5382 5373 5364 5355 5346 5338 5330 5321 5311 5301 5290 5280 5269 5258 5250 5241 5232 5224 5217 5210 5205 5200 5194 5189 5185 5182 5179 5177 5177
5455 5452 5450 5445 5441 5436 5430 5423 5417 5410 5402 5394 5387 5380 5372 5366 5358 5348 5339 5331 5323 5314 5304 5293 5283 5273 5264 5255 5245 5236 5227 5219 5212 5206 5200 5195 5190 5186 5183 5180 5177 5176 5177
5444 5441 5438 5434 5429 5423 5419 5414 5407 5399 5392 5384 5377 5369 5363 5357 5349 5341 5332 5324 5315 5307 5297 5288 5279 5269 5260 5251 5241 5232 5223 5216 5209 5202 5196 5191 5187 5184 5181 5179 5177 5176 5177
5432 5430 5427 5422 5418 5413 5408 5403 5399 5392 5384 5377 5369 5362 5355 5348 5341 5334 5325 5317 5309 5300 5292 5284 5275 5265 5256 5246 5237 5228 5220 5213 5206 5199 5194 5189 5186 5182 5180 5179 5178 5178 5179
5423 5421 5416 5413 5409 5404 5399 5393 5387 5382 5377 5371 5364 5357 5349 5341 5334 5327 5319 5310 5302 5294 5287 5279 5270 5261 5251 5242 5233 5225 5218 5211 5204 5198 5194 5189 5186 5183 5181 5180 5180 5180 5181
5416 5413 5410 5406 5401 5396 5390 5384 5378 5372 5367 5362 5356 5349 5342 5335 5328 5321 5313 5306 5299 5291 5283 5274 5266 5257 5247 5239 5231 5223 5216 5210 5204 5198 5195 5191 5187 5185 5183 5182 5182 5183 5183
5410 5406 5402 5399 5394 5389 5383 5376 5371 5365 5359 5353 5347 5341 5334 5327 5322 5315 5308 5302 5295 5287 5279 5270 5262 5253 5245 5237 5229 5222 5216 5211 5205 5200 5197 5193 5190 5188 5186 5186 5186 5187 5188
5403 5401 5396 5391 5387 5382 5376 5370 5364 5357 5351 5345 5339 5333 5328 5322 5317 5311 5305 5298 5291 5284 5276 5267 5259 5251 5243 5236 5229 5222 5216 5212 5208 5203 5200 5197 5194 5192 5190 5190 5191 5192 5193
5396 5393 5389 5385 5381 5376 5370 5363 5357 5350 5344 5338 5332 5327 5322 5316 5311 5306 5300 5294 5287 5280 5272 5264 5256 5249 5242 5235 5229 5224 5219 5215 5211 5206 5203 5200 5197 5195 5195 5195 5196 5197 5199
5390 5387 5383 5379 5374 5369 5364 5358 5351 5344 5338 5332 5327 5321 5316 5312 5307 5302 5296 5290 5283 5276 5268 5261 5254 5247 5241 5235 5229 5225 5220 5217 5213 5209 5205 5203 5201 5200 5199 5199 5200 5201 5204
5384 5380 5376 5373 5368 5363 5358 5353 5346 5339 5333 5327 5322 5317 5312 5307 5303 5297 5291 5285 5279 5272 5265 5258 5252 5246 5240 5234 5230 5226 5222 5218 5214 5211 5208 5206 5204 5203 5203 5204 5205 5207 5209
5378 5374 5371 5366 5362 5358 5352 5347 5341 5334 5328 5323 5318 5313 5308 5303 5298 5293 5287 5281 5275 5269 5263 5256 5250 5245 5239 5235 5230 5227 5223 5220 5217 5215 5211 5209 5207 5206 5206 5207 5209 5211 5214
5373 5369 5365 5361 5357 5352 5347 5342 5336 5330 5324 5319 5314 5309 5305 5300 5295 5290 5284 5278 5272 5266 5260 5254 5249 5244 5239 5235 5231 5227 5225 5222 5220 5218 5214 5212 5210 5210 5210 5212 5213 5216 5219